Starlink 30563

operational
NORAD ID: 58042 Int'l Des: 2023-156 Owner: SPXS Country: US Constellation: starlink
LEOCIRCULAR

Starlink 30563について

説明を読み込み中...

リアルタイム位置

3D地球を読み込み中...

次回通過

高度履歴

Altitude vs Time

uPlot chart will show altitude changes over time

軌道要素

1 58042U 23156Q 25350.30273190 .00001589 00000-0 65797-4 0 9997
2 58042 53.1593 103.0847 0001226 93.7954 266.3187 15.30186618123589
Epoch: Dec 16, 2025 • Age: 21 hours

現在のステータス

高度 480.0 km
速度 7.63 km/s
衛星直下点 48.85°N, 72.67°E
打ち上げ日 Oct 9, 2023
運用期間 2.1 years
タイプ internet

技術仕様

分類 Payload
質量 730.00 kg
乾燥質量 700.00 kg
総質量 730.00 kg
長さ 0.30 m
直径 4.10 m
スパン 29.00 m
形状 Box + pan
製造者 SPXS
バスタイプ Starlink V2M
フェーズステータス In Orbit
所有者/国 SPXS/US

大規模コンステレーション

Loading constellations...